Kamloops Airport
CYKA : now visible

Airfield :











YOU CAN JOIN US ON...

 
LOGIN :

Register | Disclaimer

   EN    FR    IT 

 









Legend :    VFR   Marginal VFR   IFR   Intensive IFR   Very Intensive IFR
Visi :
Ceiling :
>= 8 km
>= 3000ft
5 to 8 km
1000 to 3000 ft
1500m to 5 km
500 to 1000 ft
800 to 1500m
200 to 500 ft
< 800m
< 200 ft
Symbols :   Thunderstorms  Fog  Heavy snow  Heavy precipitations  Wind > 20 kt






- Airport Elevation : 1133 ft
- IATA code : YKA


CYKA - Kamloops

CURRENT METAR :
  • 042200Z 09008KT 40SM SCT250 04/M02 A3049 RMK CI3 SLP345

EXPIRED METARs :
  • 042100Z 10007KT 40SM FEW220 04/M02 A3052 RMK CI2 SLP355
  • 042000Z 11007KT 40SM FEW170 FEW230 03/M01 A3053 RMK AC1CI1 SLP360

TAF TAF CYKA
Valid from the 04 at 19:00 until the 05 at 07:00 UTC


041838Z 0419/0507 10008KT P6SM FEW012 BKN220 RMK NXT FCST BY 050100Z
CZVR FIR / North America



MET'MAP, your aeronautical weather chart ! - Copyright ORBIFLY December 2007 - Disclaimer

ORBIFLY MET'MAP TEAM :

Programming & Development : Alexandra Zaïnal
Concept & original design : Baudouin d'Aumeries
Assistance for programming : Marc-Olivier Méhu
Technical & hardware support : Manuel Goepfert

Contact : metmap@orbifly.com




SOURCES & CREDITS :

   NOAA       Earth
Advisory